weather.gov     
National Weather Service

Regional Weather Roundup
NWS Homepage
This page is being discontinued on March 12, 2014.
The same data is available at this site. Please update your bookmarks.
Thank you, and we apologize for the inconvenience.
Please send an email to SR-SRH.Webmaster@noaa.gov with any concerns.


Current Version
Previous Version:    01  02  03  04  05  06  07  08  09  10  11  12  13  14  15  16  17  18  19  20  21  22  23  24  25  26  27  28  29  30  
   31  32  33  34  35  36  37  38  39  40  41  42  43  44  45  46  47  48  49  50  51  52  53  54  55  56  57  58  59  60  
[Printable]
563
ASUS44 KFWD 300415
RWRTX
NORTH TEXAS HOURLY WEATHER ROUNDUP
NATIONAL WEATHER SERVICE FORT WORTH TX
1100 PM CDT FRI AUG 29 2014

NOTE: "FAIR" INDICATES FEW OR NO CLOUDS BELOW 12,000 FEET WITH NO
SIGNIFICANT WEATHER AND/OR OBSTRUCTIONS TO VISIBILITY.

TXZ118-119-300500-
DALLAS/FORT WORTH METROPLEX

CITY           SKY/WX    TMP DP  RH WIND       PRES   REMARKS
DFW AIRPORT    MOCLDY    81  71  71 SE3       29.91R
DALLAS LOVE    MOCLDY    79  71  76 SE15      29.92R
FTW MEACHAM    MOCLDY    82  70  66 S7        29.92R
DAL-EXECUTIVE  MOCLDY    81  71  71 SE6       29.93R
FTW-ALLIANCE   PTCLDY    78  70  76 S3        29.92R
FTW-NAS-JRB    MOCLDY    86  67  52 SE8       29.96R
FTW-SPINKS     MOCLDY    81  70  70 S9        29.94R
ARLINGTON      MOCLDY    83  70  64 SE10      29.93R
GRAND PRAIRIE  MOCLDY    83  68  61 E7        29.93R
ADDISON        PTCLDY    83  69  62 SE8       29.94S
MESQUITE       MOCLDY    77  72  83 S5        29.93R
LANCASTER      MOCLDY    75  72  88 CALM      29.94S
$$

TXZ091>094-102>105-117-120-121-131>134-300500-
NORTH CENTRAL TEXAS

CITY           SKY/WX    TMP DP  RH WIND       PRES   REMARKS
SHRMAN/DENISON CLEAR     79  68  69 SE7       29.94R
GAINESVILLE    CLEAR     76  73  88 E3        29.95R
BOWIE          MOCLDY    75  72  90 CALM      29.94R
BRIDGEPORT     PTCLDY    78  70  77 CALM      29.94S
DECATUR        PTCLDY    77  72  85 CALM      29.94S
DENTON         CLEAR     78  72  81 S5        29.92R
MCKINNEY       PTCLDY    76  70  82 SE5       29.92R
GREENVILLE     MOCLDY    79  72  78 S6        29.94R
ROCKWALL       MOCLDY    78  73  86 S5        29.92S
TERRELL        MOCLDY    81  75  82 S3        29.94R
WAXAHACHIE     MOCLDY    79  70  73 S5        29.95S
CLEBURNE       CLOUDY    79  75  89 S6        29.96R
GRANBURY       CLOUDY    83  69  62 SE5       29.95R
$$

TXZ083>090-098>101-113>116-127>130-139>142-154-155-300500-
WESTERN NORTH TEXAS

CITY           SKY/WX    TMP DP  RH WIND       PRES   REMARKS
WICHITA FALLS  CLEAR     73  69  87 S6        29.91R
WF-KICKAPOO    CLEAR     74  69  84 SE5       29.94R
VERNON         CLEAR     77  70  79 S7        29.94R
ABILENE        CLOUDY    79  66  64 CALM      29.98R
ABILENE-DYESS  CLOUDY    78  68  72 E3        29.97R
BRECKENRIDGE   MOCLDY    77  71  82 CALM      29.95R
GRAHAM         PTCLDY    76  70  81 CALM      29.93R
MINERAL WELLS  MOCLDY    78  69  73 SE5       29.93R
STEPHENVILLE   MOCLDY    76  70  80 S6        29.98R
COMANCHE         N/A     76  69  76 SE7       29.96R
BROWNWOOD      CLOUDY    79  68  69 SE9       29.95R
COLEMAN        MOCLDY    77  69  76 E3        29.97R
BRADY          CLEAR     79  68  69 E7        29.96S
$$

TXZ143>147-156>162-174-175-300500-
CENTRAL TEXAS

CITY           SKY/WX    TMP DP  RH WIND       PRES   REMARKS
WACO           CLOUDY    80  69  69 SE6       29.92S
WACO-TSTC      CLEAR     77  70  78 S5        29.92S
WACO-MCGREGOR  MOCLDY    77  68  73 SE6       29.93F
HILLSBORO      CLOUDY    78  68  71 SE7       29.93F
CORSICANA      PTCLDY    79  73  82 SE9       29.93F
MEXIA          PTCLDY    76  72  86 SE3       29.92F
HEARNE           N/A     74  73  97 CALM      29.93S
CAMERON        PTCLDY    75  73  92 CALM      29.92S
TEMPLE         MOCLDY    75  66  73 SE8       29.91F
KILLEEN        LGT RAIN  79  70  73 E5        29.93F
KILLEEN-SKYLRK PTCLDY    79  66  65 SE7       29.91F
FORT HOOD      PTCLDY    80  69  69 SE3       29.94R
GATESVILLE     CLOUDY    75  73  94 CALM      29.96R
$$

TXZ095>097-106>112-122>126-135>138-148>153-164>167-300500-
EAST TEXAS

CITY           SKY/WX    TMP DP  RH WIND       PRES   REMARKS
PARIS          MOCLDY    75  64  69 S7        29.95R
SULPHUR SPRNGS PTCLDY    79  69  71 S5        29.96R
MOUNT PLEASANT MOCLDY    74  73  94 SE7       29.95S
GILMER         MOCLDY    75  75 100 CALM      29.96R
MINEOLA        PTCLDY    81  72  74 SE6       29.94S
TYLER          MOCLDY    77  71  82 S6        29.94S
LONGVIEW       CLOUDY    79  67  66 S6        29.95R
MARSHALL       CLOUDY    81  70  69 CALM      29.97R
ATHENS         PTCLDY    75  68  78 S6        29.93S
PALESTINE      PTCLDY    76  72  86 CALM      29.96R
JACKSONVILLE   CLOUDY    75  71  89 CALM      29.99R
HENDERSON      CLOUDY    75  69  79 CALM      29.97R
NACOGDOCHES    CLOUDY    75  70  83 S5        29.95R
LUFKIN         MOCLDY    77  72  84 SE6       29.94S
$$

SUPPLEMENTAL OBSERVATIONS (CENTRAL)

CITY           SKY/WX    TMP DP  RH WIND       PRES   REMARKS
LAKE TEXOMA      N/A     79  68  69 S2          N/A
PAT MAYSE LAKE   N/A     79  68  69 SE10        N/A
GREENVILLE       N/A     79  72  78 S3          N/A
CEDAR HILL       N/A     81  70  69 S8          N/A
PALESTINE        N/A     73  68  83 S1          N/A
LAKE LIMESTONE   N/A     73  68  83 E1          N/A
MCGREGOR         N/A     77  70  78 E2          N/A
TEMPLE           N/A     75  68  78 E7          N/A
$$

SUPPLEMENTAL OBSERVATIONS (WEST)

CITY           SKY/WX    TMP DP  RH WIND       PRES   REMARKS
MILLERS CREEK    N/A     75  66  73 S3          N/A
POSSUM KINGDOM   N/A     79  72  78 SE5         N/A
GRANBURY         N/A     82  68  61 S6          N/A
COMANCHE         N/A     77  68  73 SE7         N/A
HAMBY            N/A     75  66  73 E5          N/A
COLORADO BEND    N/A     79  68  69 SE6         N/A
$$

SUPPLEMENTAL OBSERVATIONS (EAST)

CITY           SKY/WX    TMP DP  RH WIND       PRES   REMARKS
CLARKSVILLE      N/A     75  68  78 SE3         N/A
TEXARKANA        N/A     79  72  78 S1G9        N/A
LINDEN           N/A     77  70  78 CALM        N/A
CADDO LAKE       N/A     73  72  94 CALM        N/A
GILMER           N/A     73  70  88 S1          N/A
HENDERSON        N/A     75  70  83 SW1         N/A
LUFKIN           N/A     75  70  83 MISG        N/A
N SABINE NF      N/A     75  68  78 MISG        N/A
S SABINE NF      N/A     77  72  83 S1          N/A
$$

SUPPLEMENTAL OBSERVATIONS ARE A COLLECTION OF AUTOMATED INSTRUMENTS
THAT ARE MAINTAINED BY A VARIETY OF FEDERAL AND STATE AGENCIES.
CERTAIN ELEMENTS...SUCH AS HUMIDITY VALUES AND SUSTAINED WIND
SPEEDS...MAY BE APPROXIMATED.





U.S. Dept. of Commerce
NOAA National Weather Service
1325 East West Highway
Silver Spring, MD 20910
E-mail: w-nws.webmaster@noaa.gov
Page last modified: May 16, 2007
NATIONAL WEATHER SERVICE: for Safety, for Work, for Fun - FOR LIFE